sat.trackr.live / text

‹ back to catalog

STARLINK-32528

NORAD 61724 · 2024-196T

PAYLOAD ACTIVE UNKNOWN

§ Identity

Operator
Country
US
Launch date
2024-10-30
Launch site
AFETR
Launch vehicle
Mass (kg)
RCS (m²)

Purposes: comms

External: N2YO · Heavens-Above · Gunter

§ Orbital elements

Epoch: 2026-05-25T02:53:50.277120Z

Period
94.11 min
Inclination
53.1605°
Eccentricity
0.0001380
Mean motion
15.30191631 rev/d
Perigee alt
474.3 km
Apogee alt
476.2 km
Semi-major
6,853.4 km
B*
3.3382e-5
RAAN
106.6733°
Arg perigee
99.9183°
Mean anomaly
260.1973°
Rev number
8,765

§ Raw data

STARLINK-325281 61724U 24196T   26145.12072080  .00000629  00000+0  33382-4 0  99992 61724  53.1605 106.6733 0001380  99.9183 260.1973 15.30191631 87653

JSON: /api/v1/satellites/61724 · /tle

For live sub-satellite position, see the globe view (requires WebGL).

§ Visibility from observer

Set your observer location to see the next 7 days of passes ≥ 10°. The values pass through the URL so the page stays shareable.

No JS? Fill the form by hand. The geolocation button needs JavaScript.